www.pogodaiklimat.ru

Погода и климат >> Архив погоды >> Малайзия >> Malacca


ПОГОДА в Malacca

  • Прогноз погоды в Malacca
  • Монитор погоды в Malacca
  • Климат города

АРХИВ ПОГОДЫ в Malacca

Время (UTC), дата Ветер
(напр.,м/с)
 
Видим.   Явления Облачность Т
(С)
Тd
(С)
f
(%)
Тe
(С)
Тes
(С)
Комфортность P
(гПа)
Po
(гПа)
Тmin
(С)
Tmax
(С)
R
(мм)
R24
(мм)
S
(см)
03 11.10 СВ 4 14 км мгла 9/5 600 м
[Cu med, cong Ac As Ci fib]
+28.8 +23.8 74 +39 +42 очень
душно
1012.2 1011.2
06 11.10 З 2 14 км мгла 9/5 500 м
[Cb cap Ac As Ci fib]
+30.4 +24.3 70 +42 +49 опасность
перегрева
1009.6 1008.6
09 11.10 ЮЗ 3 8000 м гроза, ливневой дождь 10/5 300 м
[Cb cap Ac lent Cs]
+28.4 +26.0 87 +43 +44 опасность
перегрева
1008.4 1007.4
12 11.10 ЮВ 2 4000 м гроза, ливневой дождь 10/6 240 м
[Cb cap Ac As Cs]
+24.9 +24.4 97 +35 +35 очень
душно
1010.9 1009.9 +31.5 24
15 11.10 штиль 0 7000 м слабый ливневой дождь, в посл. час гроза 10/5 180 м
[Cb cap Ac As Cs]
+24.2 +23.5 96 +33 +33 очень
душно
1013.8 1012.8
18 11.10 ЮЗ 1 8000 м зарница {гроза, дождь} 9/4 300 м
[Cb cap Ac As Cs]
+24.4 +23.7 96 +33 +33 очень
душно
1013.2 1012.2 4
21 11.10 В 1 8000 м в посл. час дождь 9/4 300 м
[Sc Ac As Cs]
+24.4 +23.9 97 +33 +33 очень
душно
1011.7 1010.7
00 12.10 С 1 12 км мгла {дождь} 9/4 540 м
[Cu Sc Ac As Cs]
+24.5 +23.6 95 +33 +34 очень
душно
1013.3 1012.3 +23.9 30
03 12.10 З 1 18 км мгла 9/4 600 м
[Cu med, cong Ac As Ci sp]
+27.7 +24.3 82 +39 +45 очень
душно
1014.8 1013.8
06 12.10 ЮЗ 3 18 км мгла 9/4 500 м
[Cb calv Ac lent Ci sp]
+29.4 +24.5 75 +42 +47 опасность
перегрева
1011.8 1010.8
09 12.10 З 3 14 км осадки на расстоянии 9/4 480 м
[Cb cap Ac lent Ci sp]
+28.8 +24.2 76 +40 +42 очень
душно
1010.2 1009.2
12 12.10 СЗ 2 12 км зарница {дождь} 9/4 500 м
[Cb cap Ac und Cs]
+25.0 +23.8 93 +34 +34 очень
душно
1012.1 1011.1 +30.3 3
15 12.10 СВ 2 12 км зарница 9/5 500 м
[Cb cap Ac lent Cs]
+25.0 +23.8 93 +34 +34 очень
душно
1014.3 1013.3
18 12.10 С 1 12 км мгла 9/3 800 м
[Sc Ac lent Cs]
+24.8 +23.9 95 +34 +34 очень
душно
1013.1 1012.1
21 12.10 СЗ 1 12 км слабый дождь 9/5 500 м
[Cb cap Ac lent Cs]
+25.0 +23.8 93 +34 +34 очень
душно
1011.4 1010.4
00 13.10 С 1 14 км в посл. час дождь 9/4 300 м
[Cu Sc Ac As Cs]
+25.0 +23.9 94 +34 +35 очень
душно
1013.3 1012.3 +24.5 4
03 13.10 СЗ 2 14 км мгла 9/3 600 м
[Cu Sc Ac lent Ci sp]
+28.3 +23.8 77 +39 +45 очень
душно
1014.2 1013.2
06 13.10 СЗ 3 16 км мгла 9/3 500 м
[Cb cap Ac lent Ci sp]
+30.5 +23.7 67 +42 +49 опасность
перегрева
1011.5 1010.5
09 13.10 З 3 18 км осадки на расстоянии 9/4 500 м
[Cb cap Ac lent Ci sp]
+29.7 +24.2 72 +41 +43 опасность
перегрева
1010.1 1009.1
12 13.10 С 2 9000 м гроза, ливневой дождь 10/4 300 м
[Cb cap Ac lent Cs]
+26.1 +24.5 91 +37 +37 очень
душно
1012.0 1011.0 +31.3 0.0
15 13.10 СВ 1 12 км зарница 9/3 500 м
[Cb cap Ac lent Cs]
+24.9 +23.7 93 +34 +34 очень
душно
1013.8 1012.8
18 13.10 СВ 2 12 км зарница 9/3 480 м
[Cb cap Ac lent Cs]
+24.5 +23.6 95 +33 +33 очень
душно
1013.1 1012.1 0.2
21 13.10 З 1 9000 м слабый дождь 10/5 300 м
[Cb cap Ac lent Cs]
+24.3 +23.2 94 +33 +33 очень
душно
1012.7 1011.7
00 14.10 СЗ 1 12 км в посл. час дождь 9/4 480 м
[Cb cap Ac lent Cs]
+24.5 +22.5 89 +32 +33 очень
душно
1013.7 1012.7 +23.9 1
03 14.10 СЗ 2 18 км мгла 9/3 600 м
[Cu med, cong Ac As Ci sp]
+26.2 +23.3 84 +35 +42 очень
душно
1014.7 1013.7
06 14.10 С 1 18 км мгла 9/3 600 м
[Cu med, cong Ac As Ci sp]
+28.0 +24.1 79 +39 +48 очень
душно
1012.6 1011.6
09 14.10 штиль 0 18 км мгла 9/1 660 м
[Cu Sc Ac As Ci sp]
+29.2 +22.9 69 +39 +43 очень
душно
1010.8 1009.8
12 14.10 штиль 0 14 км зарница 9/3 500 м
[Cb cap Ac As Cs]
+27.1 +24.9 88 +39 +39 очень
душно
1012.6 1011.6 +29.4
15 14.10 СВ 1 12 км зарница 9/4 500 м
[Cb cap Ac lent Cs]
+25.9 +24.5 92 +36 +36 очень
душно
1014.6 1013.6
18 14.10 СВ 2 12 км зарница 9/3 500 м
[Cb calv Ac und Ci sp]
+24.9 +23.8 94 +34 +34 очень
душно
1013.1 1012.1
21 14.10 СВ 2 12 км зарница 9/3 500 м
[Cb cap Ac lent Ci sp]
+23.8 +22.4 92 +31 +31 очень
душно
1011.6 1010.6
00 15.10 СВ 1 18 км мгла 9/3 540 м
[Cu Sc Ac und Ci sp]
+24.4 +22.9 91 +32 +33 очень
душно
1012.0 1011.0 +23.5
03 15.10 ЮЗ 2 16 км мгла 9/3 600 м
[Cu hum Ac As Ci fib]
+30.0 +23.8 69 +41 +47 опасность
перегрева
1013.3 1012.3
06 15.10 Ю 3 16 км мгла 9/4 500 м
[Cb cap Ac trans Ci fib]
+31.6 +24.0 64 +43 +49 опасность
перегрева
1011.2 1010.2
09 15.10 Ю 1 18 км мгла 9/4 500 м
[Cb cap Ac lent Ci sp]
+29.2 +23.5 71 +40 +42 очень
душно
1009.3 1008.3
12 15.10 штиль 0 12 км зарница 9/4 500 м
[Cb cap Ac As Ci sp]
+26.9 +23.9 84 +37 +37 очень
душно
1011.4 1010.4 +31.7
15 15.10 СВ 2 12 км мгла 9/3 800 м
[Sc Ac As Ci sp]
+26.0 +24.4 91 +36 +36 очень
душно
1013.5 1012.5
18 15.10 СВ 2 10 км зарница 9/4 500 м
[Cb cap Ac As Ci sp]
+25.1 +23.4 90 +34 +34 очень
душно
1012.0 1011.0
21 15.10 СЗ 1 10 км зарница 9/4 500 м
[Cb cap Ac As Ci sp]
+25.2 +23.3 89 +34 +34 очень
душно
1011.8 1010.8
00 16.10 штиль 0 9000 м мгла 9/4 500 м
[Cb cap Ac As Ci sp]
+25.0 +23.1 89 +33 +34 очень
душно
1013.2 1012.2 +24.3
03 16.10 СЗ 2 18 км мгла 9/3 600 м
[Cu med, cong Ac lent Ci sp]
+28.8 +24.2 76 +40 +46 очень
душно
1014.3 1013.3
06 16.10 ЮЗ 4 18 км мгла 9/3 630 м
[Cu med, cong Ac lent Ci sp]
+30.9 +24.0 67 +43 +49 опасность
перегрева
1011.1 1010.1
09 16.10 З 3 18 км осадки на расстоянии 9/4 500 м
[Cb cap Ac As Ci sp]
+30.2 +24.2 70 +42 +44 опасность
перегрева
1010.0 1009.0
12 16.10 ЮЗ 2 12 км зарница 9/4 500 м
[Cb cap Ac As Ci sp]
+27.9 +24.2 80 +39 +39 очень
душно
1011.8 1010.8 +31.7
15 16.10 штиль 0 12 км мгла 9/3 840 м
[Sc Ac lent Ci sp]
+26.6 +24.7 89 +38 +38 очень
душно
1014.1 1013.1
18 16.10 СЗ 2 12 км мгла 9/3 840 м
[Sc Ac lent Ci sp]
+25.5 +23.8 90 +35 +35 очень
душно
1012.6 1011.6
21 16.10 С 2 12 км мгла 9/1 900 м
[Sc Ac lent Ci sp]
+24.5 +23.2 92 +33 +33 очень
душно
1011.7 1010.7
00 17.10 штиль 0 16 км мгла 9/3 500 м
[Cb calv Ac lent Ci sp]
+25.0 +22.9 88 +33 +34 очень
душно
1012.9 1011.9 +24.0
03 17.10 СЗ 3 18 км мгла 6/1 570 м
[Cu hum Ac trans Ci fib]
+30.4 +23.7 67 +41 +50 опасность
перегрева
1013.9 1012.9
06 17.10 З 3 18 км мгла 9/4 500 м
[Cb cap Ac As Ci sp]
+32.2 +23.3 59 +43 +48 опасность
перегрева
1011.0 1010.0
09 17.10 З 4 18 км мгла 8/3 500 м
[Cb calv Ac trans Ci fib]
+31.2 +23.1 62 +41 +43 опасность
перегрева
1008.0 1007.0
12 17.10 З 1 14 км зарница 9/3 500 м
[Cb cap Ac lent Ci sp]
+28.5 +24.3 78 +40 +40 очень
душно
1010.0 1009.0 +32.7
15 17.10 СЗ 2 14 км мгла 9/1 900 м
[Sc Ac As Ci sp]
+27.5 +23.2 77 +37 +37 очень
душно
1012.0 1011.0
18 17.10 СЗ 2 14 км зарница 9/4 500 м
[Cb cap Ac As Ci sp]
+26.6 +23.0 81 +36 +36 очень
душно
1011.1 1010.1
21 17.10 ЮЗ 2 7000 м слабый дождь 10/5 300 м
[Cb cap Ac As Ci sp]
+24.5 +22.8 90 +32 +32 очень
душно
1010.8 1009.8

 

Местоположение метеостанции Malacca (Малайзия): широта 2.27 долгота 102.25 высота над уровнем моря 9 м.

В архиве по умолчанию представлена погода в Malacca за последнюю неделю. Архивные данные за месяц целиком и за предыдущие месяцы, начиная с января 2011 года, Вы можете получить, выбрав интересующий диапазон дат из раскрывающегося списка и нажав кнопку "Ввод!".


*Определитесь, кто Вы:
робот инопланетянин человек

Внимание! Время в таблицах - всемирное. Для получения местного времени необходимо прибавить поправку, которая в Malacca равна 7 ч.

Смотрите также архив погоды в соседних городах и на ближайших метеорологических станциях:

Погода в Kuala Lumpur Int Airport (Малайзия) (79 км)
Погода в Kuala Lumpur (Малайзия) (122 км)
Погода в Johore Bharu / Senai (Малайзия) (173 км)
Погода в Kuantan (Малайзия) (199 км)
Погода в Singapore (Сингапур) (217 км)
Погода в Pekanbaru (Индонезия) (219 км)
Погода в Batam Hang Nadim Airport (Индонезия) (243 км)
Погода в Cameron Highlands (Малайзия) (263 км)
Погода в Sitiawan (Малайзия) (277 км)
Погода в Ipoh (Малайзия) (286 км)

Пояснения к столбцам:

Ветер - указаны скорость ветра в м/с - средняя за 10 мин, порывы в срок и между сроками (в фигурных скобках) и направление, откуда дует ветер: С - северный, СВ - северо-восточный, В - восточный, ЮВ - юго-восточный, Ю - южный, ЮЗ - юго-западный, З - западный, СЗ - северо-западный.
Видимость - горизонтальная дальность видимости в метрах или километрах. При видимости от 1 до 10 км при отсутствии осадков обычно наблюдается дымка, при ухудшении видимости до 1 км и менее - туман. В сухую погоду видимость может ухудшаться дымом, пылью или мглою.
Явления - указаны атмосферные явления, наблюдавшиеся в срок или в последний час перед сроком; фигурными скобками обозначены явления, наблюдавшиеся между сроками (за 1-3 часа до срока); квадратными скобками обозначены град или гололедные отложения с указанием их диаметра в мм.
Облачность - указаны через наклонную черту общая и нижняя облачность в баллах и высота нижней границы облаков в метрах; квадратными скобками обозначены формы облаков: Ci - перистые, Cs - перисто-слоистые, Cc - перисто-кучевые, Ac - высококучевые, As - высокослоистые, Sc - слоисто-кучевые, Ns - слоисто-дождевые, Cu - кучевые, Cb - кучево-дождевые. Подробнее классификацию облаков см. в Атласе облаков (PDF).
T - Температура воздуха - температура, измеренная на высоте 2 м над землей.
Td - Температура точки росы - температура, при понижении до которой содержащийся в воздухе водяной пар достигнет насыщения.
f - Относительная влажность воздуха - влажноcть воздуха, измеренная на высоте 2 м над землей.
Te - Эффективная температура - температура, которую ощущает одетый по сезону человек в тени. Характеристика душности погоды. При расчете учитывается влияние влажности воздуха и скорости ветра на теплоощущения человека.
Tes - Эффективная температура на солнце - температура, которую ощущает человек, с поправкой на солнечный нагрев. Характеристика знойности погоды. Зависит от высоты солнца над горизонтом, облачности и скорости ветра. Ночью, в пасмурную погоду, а также при ветре 12 м/с и более поправка равна нулю.
P - Атмосферное давление - приведенное к уровню моря атмосферное давление.
Po - Атмосферное давление - измеренное на уровне метеостанции атмосферное давление.
Tmin - Минимальная температура - минимум температуры воздуха на высоте 2 м над землей.
Tmax - Максимальная температура - максимум температуры воздуха на высоте 2 м над землей.
R - Количество осадков - Количество выпавших осадков за период времени, мм. При наведении курсора мыши на число - период времени, за который выпало указанное количество осадков.
R24 - Количество осадков - Количество выпавших осадков за 24 часа, мм.
S - Снежный покров - Высота снежного покрова, см. При наведении курсора мыши на число - состояние снежного покрова и степень покрытия местности в баллах.